Location: Pl�tzky
(52.0521°N, 11.8020°E)
Time: 10:51:55
(UTC+00:00)

Cosmos 2369 Rocket - Pass Details

Date: 22 November 2019
Orbit: 830 x 851 km, 71.0° (Epoch: 10 December)

Event Time Altitude Azimuth Distance (km) Brightness Sun altitude
Rises 16:37:36 0° 289° (WNW) 3,380 6.3 -12.6°
Reaches altitude 10° 16:41:39 10° 318° (NW) 2,447 5.0 -13.2°
Maximum altitude 16:44:04 13° 344° (NNW) 2,258 4.4 -13.6°
Drops below altitude 10° 16:46:29 10° 10° (N) 2,450 4.4 -13.9°
Enters shadow 16:48:18 - 25° (NNE) 2,799 4.5 -14.2°
